[[{"header":{"parameterUnit":"m.s-1","parameterCategory":1,"la1":30.2991,"la2":30.254,"lo1":-89.0895,"lo2":-89.0444,"dy":0.0017,"dx":0.0017,"nx":28,"ny":28,"refTime":"2024-12-15T09:00:00:Z","depth":0,"parameterNumber":2,"parameterNumberName":"U-component_of_WINDS"},"data":[0,0,0,0,0,0,0,0,0,0,0,0,0,0,0,0,0,0,0,0,0,0,0,0,0,0,0,0,0,0,0,0,0,0,0,0,0,0,0,0,0,0,0,0,0,0,0,0,0,0,0,0,0,0,0,0,0,0,-3.11,-3.1099,0,-3.1069,-3.1068,-3.1068,-3.1001,-3.1,-3.0998,-3.0997,-3.0967,-3.0967,-3.0968,0,0,0,0,0,0,0,0,0,0,0,0,0,-3.1103,-3.1103,-3.11,-3.1099,-3.1099,-3.1069,-3.1068,-3.1068,-3.1001,-3.0999,-3.0998,-3.0996,-3.0967,-3.0967,-3.0968,0,0,0,0,0,0,0,0,0,0,0,0,0,-3.109,-3.1103,-3.11,-3.1062,-3.1058,-3.1069,-3.1068,-3.1068,-3.1002,-3.0999,-3.0997,-3.0995,-3.0966,-3.0967,-3.0968,-3.1013,0,0,-3.097,-3.097,0,0,0,0,0,0,0,0,-3.1091,-3.109,-3.1068,-3.1065,-3.106,-3.1037,-3.1058,-3.105,-3.1002,-3.1023,-3.0997,-3.0994,-3.0992,-3.099,-3.0989,-3.1012,-3.101,-3.097,-3.097,-3.0971,-3.0971,0,0,0,0,0,0,0,-3.1092,-3.1091,-3.1087,-3.1068,-3.1063,-3.1047,-3.1043,-3.1056,-3.1019,-3.1021,-3.1016,-3.1013,-3.0989,-3.0988,-3.0988,-3.101,-3.097,-3.0971,-3.0971,-3.0971,-3.1069,-3.1071,0,0,0,0,0,0,-3.1098,-3.1092,-3.1088,-3.1086,-3.1071,-3.1049,-3.1044,-3.1046,-3.1019,-3.1013,-3.1015,-3.101,-3.0988,-3.0987,-3.0986,-3.1038,-3.0971,-3.0971,-3.0972,-3.1067,-3.107,-3.1072,0,0,0,0,0,0,-3.1098,-3.1098,-3.109,-3.1088,-3.1086,-3.1051,-3.1054,-3.1047,-3.1046,-3.1014,-3.1008,-3.1021,-3.0987,-3.0985,-3.1007,-3.1036,-3.0972,-3.0972,-3.1064,-3.1068,-3.1071,-3.1141,0,0,0,0,0,0,-3.1099,-3.1099,-3.1115,-3.1089,-3.1086,-3.111,-3.1056,-3.1048,-3.1047,-3.104,-3.1018,-3.1012,-3.0985,-3.1006,-3.1008,-3.1035,-3.0973,-3.1062,-3.1066,-3.107,-3.1136,-3.1146,-3.1155,0,0,0,0,0,-3.1099,-3.1136,-3.1116,-3.1116,-3.1105,-3.1112,-3.111,-3.1078,-3.105,-3.1066,-3.1046,-3.1013,-3.1033,-3.1009,-3.101,-3.1038,-3.106,-3.1065,-3.1069,-3.1131,-3.1144,-3.1154,0,0,0,0,0,0,-3.1167,-3.1132,-3.1109,-3.1139,-3.1129,-3.1101,-3.112,-3.1092,-3.109,-3.1084,-3.1044,-3.1039,-3.1066,-3.1055,-3.1029,-3.1081,-3.1041,-3.1046,-3.1088,-3.1099,-3.1109,-3.111,-3.0974,0,0,0,0,0,-3.1185,-3.1193,-3.1162,-3.1191,-3.1188,-3.1155,-3.1157,-3.1132,-3.112,-3.1116,-3.1097,-3.1088,-3.1092,-3.1095,-3.1097,-3.1134,-3.1128,-3.1154,-3.1164,-3.1172,-3.1177,-3.1196,-3.1207,-3.1088,-3.1088,-3.1088,0,0,-3.1223,-3.1205,-3.1213,-3.1205,-3.1194,-3.1203,-3.1152,-3.1164,-3.117,-3.1118,-3.1137,-3.1123,-3.111,-3.114,-3.1152,-3.1131,-3.1208,-3.1178,-3.1185,-3.1185,-3.1202,-3.1213,-3.1223,-3.1091,-3.1091,-3.109,0,0,-3.1297,-3.1285,-3.1307,-3.1298,-3.1282,-3.126,-3.1266,-3.1243,-3.1231,-3.125,-3.1211,-3.1219,-3.1226,-3.1218,-3.1215,-3.1288,-3.1257,-3.129,-3.1339,-3.1358,-3.1367,-3.1375,-3.1401,-3.1411,-3.1295,-3.1295,-3.1295,0,-3.1347,-3.1358,-3.1323,-3.1337,-3.1335,-3.1288,-3.1311,-3.1304,-3.129,-3.129,-3.1267,-3.1276,-3.1264,-3.1291,-3.1308,-3.1308,-3.1313,-3.1291,-3.1369,-3.1377,-3.1384,-3.1408,-3.1417,-3.1299,-3.1298,-3.1298,-3.1298,0,-3.142,-3.1429,-3.1449,-3.1437,-3.1437,-3.1456,-3.1424,-3.1429,-3.1405,-3.1386,-3.1406,-3.139,-3.1388,-3.1393,-3.137,-3.1417,-3.1405,-3.1376,-3.1334,-3.1399,-3.1421,-3.143,-3.1305,-3.1303,-3.1302,-3.1301,0,0,-3.1534,-3.1502,-3.151,-3.1504,-3.1484,-3.1491,-3.1508,-3.1506,-3.1511,-3.1504,-3.1517,-3.1525,-3.1499,-3.1495,-3.1471,-3.1488,-3.1547,-3.1457,-3.1456,-3.1474,-3.1598,-3.1619,-3.163,-3.1527,-3.1529,-3.153,-3.1599,0,-3.1603,-3.1629,-3.1598,-3.1632,-3.164,-3.1596,-3.1612,-3.1602,-3.1585,-3.159,-3.1572,-3.1578,-3.1543,-3.154,-3.1555,-3.1536,-3.1571,-3.1531,-3.1539,-3.154,-3.1543,-3.1641,-3.1663,-3.1729,-3.1607,-3.1608,-3.1609,0,-3.1686,-3.1682,-3.1716,-3.1694,-3.1697,-3.1711,-3.1706,-3.1712,-3.17,-3.1687,-3.1684,-3.1655,-3.1671,-3.1632,-3.1654,-3.1628,-3.163,-3.1621,-3.1623,-3.1622,-3.1578,-3.1642,-3.1749,-3.1759,-3.1623,-3.1622,-3.1621,0,-3.1765,-3.1769,-3.1789,-3.1786,-3.1761,-3.1772,-3.1763,-3.1749,-3.175,-3.1746,-3.1746,-3.1746,-3.1745,-3.1745,-3.1717,-3.1691,-3.1743,-3.1701,-3.1732,-3.1733,-3.1744,-3.1744,-3.1852,-3.1747,-3.1747,-3.1747,-3.1747,0,-3.1844,-3.1867,-3.1825,-3.1838,-3.1862,-3.1827,-3.1853,-3.1839,-3.1827,-3.1837,-3.18,-3.181,-3.1773,-3.1779,-3.1758,-3.178,-3.178,-3.177,-3.1763,-3.1772,-3.1774,-3.1772,-3.1767,-3.175,-3.1749,-3.1748,-3.1748,0,-3.1936,-3.1909,-3.1929,-3.1904,-3.1899,-3.1918,-3.1897,-3.1908,-3.189,-3.1903,-3.1904,-3.1875,-3.1881,-3.1853,-3.1855,-3.184,-3.1873,-3.1859,-3.1876,-3.1872,-3.1904,-3.1902,-3.2015,-3.2028,-3.1916,-3.1917,-3.1918,0,-3.1988,-3.2004,-3.1982,-3.1985,-3.1977,-3.1984,-3.1985,-3.1952,-3.1954,-3.1942,-3.1955,-3.1958,-3.1958,-3.197,-3.1949,-3.1951,-3.1936,-3.1976,-3.1936,-3.1945,-3.1936,-3.1935,-3.1937,-3.1984,-3.1986,-3.1987,-3.1988,0,-3.2083,-3.2069,-3.207,-3.2068,-3.207,-3.2066,-3.2061,-3.2066,-3.203,-3.2035,-3.204,-3.2041,-3.2042,-3.2046,-3.2043,-3.2033,-3.2005,-3.2001,-3.2008,-3.2017,-3.2026,-3.2021,-3.1898,-3.1998,-3.1997,-3.1996,-3.1996,-3.1995,-3.2156,-3.2168,-3.2154,-3.2158,-3.215,-3.2146,-3.2155,-3.2138,-3.2141,-3.2139,-3.212,-3.213,-3.2118,-3.2111,-3.2105,-3.2112,-3.2093,-3.2104,-3.2106,-3.2109,-3.2115,-3.2025,-3.2112,-3.2111,-3.2111,-3.2111,-3.211,0,-3.2248,-3.2237,-3.2241,-3.2234,-3.2237,-3.221,-3.2202,-3.2207,-3.2215,-3.2207,-3.2208,-3.2215,-3.2218,-3.2198,-3.2199,-3.2209,-3.2196,-3.221,-3.2209,-3.2207,-3.2132,-3.2125,-3.2221,-3.2221,-3.2221,-3.2221,-3.2221,-3.222,-3.2296,-3.2316,-3.2301,-3.2316,-3.2305,-3.2314,-3.2312,-3.2308,-3.2301,-3.231,-3.2312,-3.2299,-3.2287,-3.2286,-3.2289,-3.2283,-3.2285,-3.2303,-3.2293,-3.2223,-3.2212,-3.2202,-3.2195,-3.2304,-3.2304,-3.2367,-3.2368,-3.2369]},{"header":{"parameterUnit":"m.s-1","parameterCategory":1,"la1":30.2991,"la2":30.254,"lo1":-89.0895,"lo2":-89.0444,"dy":0.0017,"dx":0.0017,"nx":28,"ny":28,"refTime":"2024-12-15T09:00:00:Z","depth":0,"parameterNumber":3,"parameterNumberName":"V-component_of_WINDS"},"data":[0,0,0,0,0,0,0,0,0,0,0,0,0,0,0,0,0,0,0,0,0,0,0,0,0,0,0,0,0,0,0,0,0,0,0,0,0,0,0,0,0,0,0,0,0,0,0,0,0,0,0,0,0,0,0,0,0,0,0.3101,0.3102,0,0.3143,0.3144,0.3144,0.3201,0.3202,0.3203,0.3203,0.3244,0.3244,0.3245,0,0,0,0,0,0,0,0,0,0,0,0,0,0.3068,0.3069,0.3101,0.3102,0.3102,0.3143,0.3144,0.3144,0.32,0.3202,0.3203,0.3204,0.3244,0.3244,0.3245,0,0,0,0,0,0,0,0,0,0,0,0,0,0.3094,0.3069,0.3101,0.3135,0.3139,0.3143,0.3144,0.3144,0.32,0.3202,0.3203,0.3204,0.3244,0.3244,0.3245,0.3218,0,0,0.3246,0.3246,0,0,0,0,0,0,0,0,0.3092,0.3095,0.313,0.3133,0.3137,0.3168,0.3147,0.3169,0.32,0.3177,0.3203,0.3205,0.3218,0.322,0.3225,0.322,0.3222,0.3246,0.3246,0.3246,0.3246,0,0,0,0,0,0,0,0.309,0.3093,0.3118,0.313,0.3134,0.3148,0.3153,0.3152,0.3189,0.3179,0.3183,0.3187,0.322,0.3224,0.3226,0.3223,0.3246,0.3246,0.3246,0.3246,0.32,0.3199,0,0,0,0,0,0,0.3084,0.3091,0.3116,0.3119,0.3118,0.3148,0.3153,0.3157,0.3189,0.3195,0.3186,0.319,0.3223,0.3226,0.3228,0.32,0.3246,0.3246,0.3246,0.3201,0.32,0.3198,0,0,0,0,0,0,0.3083,0.3085,0.3115,0.3106,0.3111,0.3147,0.315,0.3157,0.3162,0.3194,0.3201,0.3184,0.3224,0.3228,0.3221,0.3203,0.3246,0.3247,0.3203,0.3201,0.3199,0.3144,0,0,0,0,0,0,0.3082,0.3085,0.3075,0.3106,0.3111,0.3107,0.3149,0.3157,0.3162,0.3167,0.3194,0.32,0.3226,0.322,0.3221,0.3204,0.3247,0.3205,0.3202,0.32,0.3148,0.314,0.3134,0,0,0,0,0,0.308,0.3057,0.3074,0.3077,0.31,0.3106,0.3109,0.314,0.316,0.3151,0.3173,0.3199,0.3204,0.3219,0.3221,0.3203,0.3206,0.3203,0.32,0.3151,0.3142,0.3134,0,0,0,0,0,0,0.3022,0.3062,0.3081,0.3067,0.3083,0.3115,0.3104,0.3129,0.3138,0.3143,0.318,0.3185,0.3174,0.3188,0.3203,0.318,0.3209,0.3206,0.3172,0.3163,0.3157,0.3154,0.3247,0,0,0,0,0,0.3008,0.301,0.3044,0.3028,0.3035,0.3068,0.3072,0.3094,0.3112,0.3118,0.3139,0.3154,0.316,0.3162,0.3169,0.315,0.3157,0.3139,0.3132,0.3126,0.3123,0.3116,0.3108,0.3188,0.3188,0.3188,0,0,0.2978,0.3,0.2998,0.3017,0.3032,0.3033,0.3073,0.3072,0.3073,0.3118,0.3113,0.3129,0.3149,0.3136,0.3132,0.3147,0.3103,0.3122,0.3117,0.3118,0.3112,0.3104,0.3098,0.3186,0.3186,0.3186,0,0,0.2925,0.2941,0.2931,0.2945,0.2967,0.299,0.2987,0.3016,0.3029,0.3025,0.3059,0.3061,0.3069,0.3082,0.3089,0.3042,0.3068,0.3043,0.3008,0.3,0.2994,0.2988,0.2973,0.2966,0.304,0.304,0.304,0,0.2885,0.2888,0.2922,0.2919,0.2927,0.2969,0.2959,0.2971,0.2993,0.2998,0.3015,0.3027,0.3043,0.3035,0.3024,0.3028,0.3027,0.304,0.2992,0.2987,0.2982,0.2968,0.2962,0.3037,0.3037,0.3038,0.3038,0,0.2838,0.284,0.2829,0.2851,0.2857,0.2851,0.2884,0.2886,0.2909,0.2929,0.2926,0.2946,0.2959,0.2958,0.2979,0.2954,0.2963,0.2985,0.3016,0.2971,0.2958,0.2953,0.3033,0.3034,0.3035,0.3035,0,0,0.2748,0.2791,0.2786,0.2798,0.2826,0.2828,0.2824,0.2837,0.2838,0.2853,0.285,0.2857,0.2879,0.2887,0.291,0.2903,0.2866,0.2927,0.2928,0.2916,0.284,0.2824,0.2816,0.2883,0.2882,0.2882,0.2839,0,0.27,0.2696,0.2728,0.2715,0.2718,0.2758,0.2755,0.2771,0.2791,0.2796,0.2817,0.2821,0.2849,0.2855,0.285,0.2872,0.2852,0.2875,0.2882,0.2881,0.2876,0.2809,0.2791,0.275,0.2834,0.2833,0.2833,0,0.2644,0.2657,0.2645,0.2676,0.2678,0.2674,0.269,0.2693,0.2714,0.2728,0.2739,0.2766,0.2764,0.2793,0.2791,0.2806,0.2811,0.2822,0.2821,0.2823,0.2854,0.281,0.2737,0.2731,0.2825,0.2825,0.2826,0,0.2581,0.2595,0.2591,0.2599,0.2634,0.2631,0.2645,0.2667,0.2673,0.2686,0.2691,0.2703,0.271,0.2719,0.2748,0.2766,0.2743,0.2774,0.2755,0.2755,0.2749,0.2749,0.2676,0.2751,0.2751,0.2751,0.2751,0,0.2525,0.2516,0.2563,0.256,0.2552,0.2588,0.2578,0.2597,0.2616,0.2617,0.2652,0.2653,0.2692,0.2696,0.2719,0.2715,0.2717,0.2729,0.2736,0.2727,0.2725,0.273,0.2734,0.2749,0.275,0.275,0.275,0,0.2453,0.2484,0.2481,0.2515,0.2524,0.2516,0.2545,0.2544,0.2566,0.2567,0.257,0.2604,0.2612,0.2642,0.2657,0.2672,0.266,0.2672,0.2654,0.2658,0.2638,0.264,0.2566,0.2559,0.2637,0.2636,0.2636,0,0.2415,0.2409,0.2443,0.2447,0.2461,0.2466,0.2473,0.2509,0.2515,0.2539,0.2535,0.2545,0.2556,0.2566,0.2592,0.2603,0.2616,0.259,0.2618,0.2609,0.2617,0.2617,0.2617,0.2584,0.2583,0.2582,0.2581,0,0.2345,0.2361,0.237,0.2386,0.2393,0.2407,0.2422,0.2423,0.2463,0.2468,0.2477,0.2485,0.2501,0.2511,0.2527,0.2542,0.2568,0.2572,0.2569,0.2559,0.2549,0.2555,0.2638,0.2574,0.2574,0.2575,0.2575,0.2576,0.229,0.2287,0.2311,0.2321,0.2337,0.235,0.2351,0.2374,0.2383,0.2399,0.2419,0.2426,0.2448,0.2472,0.2485,0.249,0.2505,0.2499,0.2498,0.2496,0.2492,0.2548,0.2493,0.2493,0.2494,0.2494,0.2494,0,0.2222,0.224,0.2249,0.227,0.2278,0.2303,0.2322,0.2326,0.2332,0.235,0.236,0.2371,0.2381,0.2409,0.2422,0.2421,0.2434,0.2423,0.2424,0.2427,0.2478,0.248,0.2413,0.2413,0.2413,0.2413,0.2413,0.2413,0.2188,0.2186,0.2205,0.2211,0.2229,0.2236,0.2245,0.2258,0.2273,0.2284,0.2293,0.2312,0.2334,0.2349,0.236,0.2368,0.2371,0.2357,0.2369,0.2416,0.2423,0.2431,0.2433,0.2357,0.2357,0.2318,0.2317,0.2317]}]]